This demonstration page uses our WeatherBlox Daily Observations layout. Learn more.

Left ArrowRight Arrow

42.00833, -91.64407

Hourly Observations for December 7, 2022

Temp ( °F °C ) Dew Point ( °F °C ) Humidity (%) Winds ( mph kmh ) Pressure ( in mb ) Visibility ( mi km ) Precip ( " mm )
12:05 am 00:05 Partly Cloudy with Mist and Fog 28 -2.2 25 -3.9 88 88 Calm 30.15 1021 5 8 0.00 0.00
12:52 am 00:52 Partly Cloudy with Mist and Fog 27 -2.8 25 -3.9 92 92 NNW 6 9 30.13 1020 4 6 0.00 0.00
1:52 am 01:52 Clear with Mist and Fog 27 -2.8 26 -3.3 96 96 NW 5 7 30.14 1021 3 5 0.00 0.00
2:32 am 02:32 Clear with Mist and Fog 27 -2.8 26 -3.3 96 96 NW 3 6 30.18 1022 3 4 0.00 0.00
2:52 am 02:52 Clear with Mist and Fog 22 -5.6 22 -5.6 100 100 Calm 30.14 1021 3 4 0.00 0.00
3:02 am 03:02 Clear with Mist and Fog 22 -5.6 21 -6.1 96 96 Calm 30.18 1022 3 5 0.00 0.00
3:07 am 03:07 Mostly Clear with Mist and Fog 23 -5 22 -5.6 96 96 Calm 30.17 1022 3 4 0.00 0.00
3:16 am 03:16 Mostly Cloudy with Mist and Fog 25 -3.9 23 -5 92 92 Calm 30.17 1022 1 2 0.00 0.00
3:21 am 03:21 Mostly Clear with Mist and Fog 24 -4.4 23 -5 96 96 Calm 30.17 1022 1 1 0.00 0.00
3:37 am 03:37 Cloudy with Mist and Fog 20 -6.7 19 -7.2 96 96 Calm 30.18 1022 2 3 0.00 0.00
3:46 am 03:46 Mostly Clear with Freezing Fog 21 -6 19 -7 93 93 Calm 30.18 1022 1 1 0.00 0.00
3:52 am 03:52 Mostly Clear with Freezing Fog 23 -5 22 -5.6 96 96 Calm 30.14 1021 0 0 0.00 0.00
4:09 am 04:09 Mostly Clear with Freezing Fog 21 -6.1 21 -6.1 100 100 Calm 30.18 1022 0 0 0.00 0.00
4:48 am 04:48 Mostly Clear with Freezing Fog 19 -7 19 -7 100 100 SSW 3 6 30.20 1023 0 0 0.00 0.00
4:52 am 04:52 Mostly Clear with Freezing Fog 20 -6.7 19 -7.2 96 96 S 5 7 30.16 1021 0 0 0.00 0.00
5:11 am 05:11 Mostly Clear with Freezing Fog 19 -7.2 18 -7.8 95 95 S 3 6 30.20 1023 0 0 0.00 0.00
5:28 am 05:28 Mostly Clear with Mist and Fog 20 -6.7 19 -7.2 96 96 Calm 30.21 1023 0 0 0.00 0.00
5:30 am 05:30 Mostly Clear with Mist and Fog 20 -6.7 19 -7.2 96 96 NNW 5 7 30.21 1023 1 2 0.00 0.00
5:42 am 05:42 Mostly Clear with Mist and Fog 21 -6.1 19 -7.2 92 92 NNW 6 9 30.22 1023 1 2 0.00 0.00
5:52 am 05:52 Mostly Clear with Mist and Fog 21 -6.1 19 -7.2 92 92 NNW 5 7 30.17 1022 1 2 0.00 0.00
5:59 am 05:59 Mostly Clear with Freezing Fog 20 -6.7 20 -6.7 100 100 Calm 30.22 1023 0 0 0.00 0.00
6:43 am 06:43 Mostly Clear with Freezing Fog 21 -6.1 17 -8.3 84 84 NNW 5 7 30.23 1024 0 0 0.00 0.00
6:52 am 06:52 Mostly Clear with Freezing Fog 20 -6.7 17 -8.3 88 88 NNW 5 7 30.20 1023 0 0 0.00 0.00
7:09 am 07:09 Mostly Clear with Freezing Fog 20 -6.7 17 -8.3 88 88 NNW 6 9 30.24 1024 0 0 0.00 0.00
7:30 am 07:30 Partly Cloudy with Freezing Fog 20 -6.7 17 -8.3 88 88 NNW 8 13 30.26 1025 0 0 0.00 0.00
7:47 am 07:47 Partly Cloudy with Freezing Fog 19 -7 19 -7 100 100 Calm 30.27 1025 0 0 0.00 0.00
7:52 am 07:52 Partly Cloudy with Freezing Fog 21 -6.1 20 -6.7 95 95 NNW 3 6 30.24 1024 0 0 0.00 0.00
8:05 am 08:05 Partly Cloudy with Freezing Fog 21 -6.1 20 -6.7 95 95 Calm 30.28 1025 0 0 0.00 0.00
8:16 am 08:16 Partly Cloudy with Freezing Fog 22 -5.6 19 -7.2 88 88 Calm 30.29 1026 0 0 0.00 0.00
8:22 am 08:22 Partly Cloudy with Freezing Fog 23 -5 20 -6.7 88 88 Calm 30.29 1026 1 1 0.00 0.00
8:28 am 08:28 Mostly Cloudy with Mist and Fog 24 -4.4 20 -6.7 84 84 Calm 30.28 1026 2 3 0.00 0.00
8:35 am 08:35 Sunny with Mist and Fog 24 -4.4 22 -5.6 91 91 Calm 30.28 1026 2 3 0.00 0.00
8:52 am 08:52 Sunny with Mist and Fog 26 -3.3 23 -5 88 88 Calm 30.26 1025 3 4 0.00 0.00
9:36 am 09:36 Sunny with Mist and Fog 30 -1.1 28 -2.2 92 92 Calm 30.29 1026 4 6 0.00 0.00
9:52 am 09:52 Sunny with Mist and Fog 31 -0.6 30 -1.1 96 96 W 3 6 30.27 1025 4 6 0.00 0.00
10:52 am 10:52 Hazy 36 2.2 31 -0.6 82 82 W 5 7 30.27 1025 6 10 0.00 0.00
11:52 am 11:52 Sunny 42 5.6 28 -2.2 57 57 WSW 8 13 30.26 1025 7 11 0.00 0.00
12:52 pm 12:52 Sunny 44 6.7 28 -2.2 53 53 W 9 15 30.27 1025 8 13 0.00 0.00
1:52 pm 13:52 Sunny 44 6.7 28 -2.2 53 53 NW 5 7 30.28 1025 7 11 0.00 0.00
2:52 pm 14:52 Sunny 41 5 27 -2.8 57 57 NNW 13 20 30.29 1026 7 11 0.00 0.00
3:52 pm 15:52 Sunny 38 3.3 27 -2.8 64 64 N 8 13 30.32 1027 7 11 0.00 0.00
4:52 pm 16:52 Clear 33 0.6 26 -3.3 75 75 N 8 13 30.36 1028 7 11 0.00 0.00
5:52 pm 17:52 Clear 31 -0.6 25 -3.9 78 78 NNE 12 19 30.38 1029 8 13 0.00 0.00
6:52 pm 18:52 Clear 28 -2.2 25 -3.9 88 88 NNE 10 17 30.40 1029 7 11 0.00 0.00
7:52 pm 19:52 Mostly Clear with Mist and Fog 25 -3.9 24 -4.4 96 96 NNE 9 15 30.40 1030 5 8 0.00 0.00
8:21 pm 20:21 Mostly Cloudy with Mist and Fog 26 -3.3 25 -3.9 96 96 NE 6 9 30.43 1030 4 6 0.00 0.00
8:52 pm 20:52 Cloudy with Mist and Fog 26 -3.3 24 -4.4 92 92 NE 12 19 30.41 1030 5 8 0.00 0.00
9:52 pm 21:52 Cloudy with Mist and Fog 26 -3.3 24 -4.4 92 92 NE 10 17 30.41 1030 4 6 0.00 0.00
10:52 pm 22:52 Cloudy with Mist and Fog 26 -3.3 24 -4.4 92 92 ENE 9 15 30.41 1030 5 8 0.00 0.00
11:52 pm 23:52 Cloudy with Mist and Fog 26 -3.3 24 -4.4 92 92 E 9 15 30.40 1030 4 6 0.00 0.00

Powered by AerisWeather